Back to catalog

ONEWEB-0330

AliveCommunicationsPO
NORAD 49108·PAYLOAD·🇬🇧 United Kingdom

Launched Aug 21, 2021 from Baikonur Cosmodrome

Loading…

Next Passes (next 24 hours)

TLE

FreshSource: CelesTrak SupGP

Epoch: Sep 14, 2026, 08:11 UTC

1 49108C 21075AK  26257.34115000 -.00002475  00000+0 -63824-2 0  2574
2 49108  87.9206 348.1772 0001753 105.5965 286.4828 13.17649483    10

Track ONEWEB-0330 in real time with AllMySat

Download on the App Store